CW8998 Weather Reports


Display with metric or nautical units.
time (UTC)temp
F
wind
direction
speed
MPH
gust
MPH
rain 1hr
in
rain 24hr
in
rain mn
in
humidity
%
barometer
mb
20260906023053 71 30 1.0 5.0 0.00 0.00 0.00 80 1018.0
20260906022527 72 11 1.0 5.0 0.00 0.00 0.00 80 1017.9
20260906022029 72 47 2.0 5.0 0.00 0.00 0.00 79 1017.9
20260906021547 72 10 1.0 5.0 0.00 0.00 0.00 79 1017.9
20260906021027 72 12 2.0 5.0 0.00 0.00 0.00 79 1017.7
20260906020528 72 11 1.0 4.0 0.00 0.00 0.00 79 1017.6
20260906020052 72 37 2.0 4.0 0.00 0.00 0.00 78 1017.6
20260906015527 73 18 2.0 3.0 0.00 0.00 0.00 78 1017.5
20260906015028 73 36 0.0 5.0 0.00 0.00 0.00 78 1017.7
20260906014549 73 29 1.0 5.0 0.00 0.00 0.00 77 1017.7
20260906014028 73 5 2.0 5.0 0.00 0.00 0.00 77 1017.5
20260906013529 74 55 2.0 5.0 0.00 0.00 0.00 77 1017.4
20260906013046 74 334 1.0 5.0 0.00 0.00 0.00 76 1017.2
20260906012528 74 61 2.0 4.0 0.00 0.00 0.00 76 1017.1
20260906012028 74 0 1.0 4.0 0.00 0.00 0.00 76 1017.0
20260906011543 75 34 2.0 4.0 0.00 0.00 0.00 75 1016.6
20260906011028 75 11 1.0 4.0 0.00 0.00 0.00 75 1016.4
20260906010528 75 360 0.0 3.0 0.00 0.00 0.00 74 1016.3
20260906010050 76 0 0.0 3.0 0.00 0.00 0.00 73 1016.3
20260906005527 76 47 1.0 3.0 0.00 0.00 0.00 73 1016.2
20260906005029 77 74 0.0 3.0 0.00 0.00 0.00 72 1016.1
20260906004542 77 0 0.0 3.0 0.00 0.00 0.00 72 1015.9
20260906004028 77 0 0.0 3.0 0.00 0.00 0.00 71 1015.8
20260906003528 78 0 0.0 4.0 0.00 0.00 0.00 70 1015.8
20260906003053 79 0 0.0 4.0 0.00 0.00 0.00 69 1015.7
20260906002528 79 0 1.0 4.0 0.00 0.00 0.00 69 1015.6
20260906002029 79 0 0.0 5.0 0.00 0.00 0.00 69 1015.6
20260906001551 79 281 1.0 7.0 0.00 0.00 0.00 68 1015.4
20260906001029 80 254 2.0 7.0 0.00 0.00 0.00 68 1015.3
20260906000529 80 220 0.0 4.0 0.00 0.00 0.00 67 1015.4
20260906000049 80 244 1.0 4.0 0.00 0.00 0.00 67 1015.4
20260905235528 80 0 1.0 6.0 0.00 0.00 0.00 67 1015.5
20260905235029 80 103 2.0 7.0 0.00 0.00 0.00 67 1015.4
20260905234545 81 100 2.0 7.0 0.00 0.00 0.00 66 1015.3
20260905234028 81 140 1.0 7.0 0.00 0.00 0.00 66 1015.4
20260905233532 81 194 2.0 7.0 0.00 0.00 0.00 66 1015.4
20260905233044 81 0 1.0 5.0 0.00 0.00 0.00 66 1015.2
20260905232528 81 90 2.0 5.0 0.00 0.00 0.00 65 1015.2
20260905232028 81 319 2.0 9.0 0.00 0.00 0.00 65 1015.1
20260905231551 81 340 2.0 9.0 0.00 0.00 0.00 64 1015.1
20260905231032 82 66 4.0 9.0 0.00 0.00 0.00 64 1015.2
20260905230528 82 227 2.0 10.0 0.00 0.00 0.00 63 1015.3
20260905230045 82 80 2.0 10.0 0.00 0.00 0.00 63 1015.4
20260905225528 82 17 3.0 10.0 0.00 0.00 0.00 62 1015.5
20260905225029 83 355 2.0 11.0 0.00 0.00 0.00 63 1015.6
20260905224544 83 76 4.0 11.0 0.00 0.00 0.00 63 1015.7
20260905224028 83 14 4.0 11.0 0.00 0.00 0.00 63 1015.7
20260905223530 83 56 3.0 11.0 0.00 0.00 0.00 63 1015.7
20260905223042 83 24 6.0 12.0 0.00 0.00 0.00 63 1015.6
20260905222529 83 69 5.0 12.0 0.00 0.00 0.00 62 1015.6
20260905222029 84 88 3.0 6.0 0.00 0.00 0.00 62 1015.7
20260905221547 84 0 2.0 9.0 0.00 0.00 0.00 62 1015.6
20260905221029 84 32 4.0 9.0 0.00 0.00 0.00 62 1015.6
20260905220528 84 282 2.0 9.0 0.00 0.00 0.00 62 1015.6
20260905220045 84 67 2.0 15.0 0.00 0.00 0.00 62 1015.6
20260905215529 84 148 3.0 15.0 0.00 0.00 0.00 61 1015.6
20260905215028 84 344 3.0 13.0 0.00 0.00 0.00 61 1015.6
20260905214549 84 29 6.0 13.0 0.00 0.00 0.00 61 1015.7
20260905214030 85 74 5.0 13.0 0.00 0.00 0.00 60 1015.6
20260905213529 85 61 3.0 11.0 0.00 0.00 0.00 60 1015.7
20260905213050 85 44 4.0 11.0 0.00 0.00 0.00 60 1015.7
20260905212529 84 65 4.0 9.0 0.00 0.00 0.00 61 1015.6
20260905212028 84 85 4.0 9.0 0.00 0.00 0.00 62 1015.6
20260905211553 84 62 4.0 9.0 0.00 0.00 0.00 62 1015.6
20260905211030 85 355 2.0 11.0 0.00 0.00 0.00 62 1015.7
20260905210528 84 360 3.0 11.0 0.00 0.00 0.00 63 1015.8
20260905210044 84 56 3.0 12.0 0.00 0.00 0.00 63 1015.9
20260905205529 84 37 3.0 12.0 0.00 0.00 0.00 62 1015.9
20260905205030 84 28 4.0 12.0 0.00 0.00 0.00 62 1015.8
20260905204553 84 331 4.0 11.0 0.00 0.00 0.00 63 1015.8
20260905204029 84 80 3.0 11.0 0.00 0.00 0.00 63 1015.8
20260905203528 84 50 2.0 8.0 0.00 0.00 0.00 63 1015.9
20260905203049 84 221 1.0 11.0 0.00 0.00 0.00 64 1015.9
20260905202528 84 360 3.0 11.0 0.00 0.00 0.00 64 1016.0
20260905202032 84 28 2.0 10.0 0.00 0.00 0.00 64 1016.2
20260905201544 83 24 3.0 10.0 0.00 0.00 0.00 65 1016.4
20260905201024 83 262 4.0 11.0 0.00 0.00 0.00 65 1016.5
20260905200529 83 60 2.0 11.0 0.00 0.00 0.00 65 1016.7
20260905200048 82 40 3.0 11.0 0.00 0.00 0.00 66 1016.8
20260905195529 82 25 2.0 11.0 0.00 0.00 0.00 66 1016.8
20260905195028 82 19 2.0 11.0 0.00 0.00 0.00 67 1017.0
20260905194548 82 83 3.0 9.0 0.00 0.00 0.00 66 1017.0
20260905194028 81 0 1.0 9.0 0.00 0.00 0.00 69 1017.1
20260905193532 80 20 2.0 7.0 0.00 0.00 0.00 69 1017.1
20260905193050 79 21 2.0 10.0 0.00 0.00 0.00 70 1017.2
20260905192528 79 37 2.0 12.0 0.00 0.00 0.00 70 1017.1
20260905192029 78 76 4.0 12.0 0.00 0.00 0.00 71 1017.3
20260905191546 78 71 3.0 12.0 0.00 0.00 0.00 71 1017.2
20260905191031 78 61 2.0 9.0 0.00 0.00 0.00 71 1017.4
20260905190528 78 78 1.0 7.0 0.00 0.00 0.00 72 1017.4
20260905190054 78 113 2.0 5.0 0.00 0.00 0.00 72 1017.5
20260905185530 77 173 2.0 5.0 0.00 0.00 0.00 74 1017.5
20260905185029 77 0 1.0 5.0 0.00 0.00 0.00 73 1017.6
20260905184554 76 230 1.0 6.0 0.00 0.00 0.00 74 1017.6
20260905184027 76 360 2.0 6.0 0.00 0.00 0.00 74 1017.5
20260905183530 76 172 0.0 6.0 0.00 0.00 0.00 74 1017.5
20260905183054 75 141 2.0 5.0 0.00 0.00 0.00 74 1017.6
20260905182529 75 0 1.0 5.0 0.00 0.00 0.00 75 1017.7
20260905182026 74 60 0.0 5.0 0.00 0.00 0.00 76 1017.8
20260905181552 74 192 1.0 8.0 0.00 0.00 0.00 76 1018.0
20260905181031 74 0 2.0 8.0 0.00 0.00 0.00 77 1018.0
20260905180529 74 128 3.0 8.0 0.00 0.00 0.00 75 1018.2
20260905180052 75 194 3.0 8.0 0.00 0.00 0.00 76 1018.1
20260905175530 75 200 3.0 8.0 0.00 0.00 0.00 76 1018.2
20260905175028 74 160 3.0 8.0 0.00 0.00 0.00 75 1018.1
20260905174547 74 0 1.0 8.0 0.00 0.00 0.00 76 1018.0
20260905174030 74 213 3.0 6.0 0.00 0.00 0.00 76 1018.1
20260905173526 74 169 3.0 6.0 0.00 0.00 0.00 76 1018.0
20260905173052 74 85 1.0 5.0 0.00 0.00 0.00 75 1018.0
20260905172529 75 179 1.0 5.0 0.00 0.00 0.00 75 1018.1
20260905172027 74 155 1.0 10.0 0.00 0.00 0.00 75 1018.0
20260905171549 73 183 2.0 10.0 0.00 0.00 0.00 77 1018.0
20260905171028 73 199 2.0 5.0 0.00 0.00 0.00 76 1018.1
20260905170528 73 131 2.0 5.0 0.00 0.00 0.00 76 1018.1
20260905170055 73 80 2.0 7.0 0.00 0.00 0.00 76 1018.1
20260905165526 73 192 1.0 7.0 0.00 0.00 0.00 76 1018.1
20260905165028 73 304 2.0 7.0 0.00 0.00 0.00 75 1018.0
20260905164549 73 17 1.0 5.0 0.00 0.00 0.00 76 1018.1
20260905164028 72 0 1.0 6.0 0.00 0.00 0.00 76 1018.2
20260905163527 72 161 2.0 6.0 0.00 0.00 0.00 77 1018.3
20260905163046 72 0 2.0 6.0 0.00 0.00 0.00 78 1018.4
20260905162529 71 180 1.0 5.0 0.00 0.00 0.00 78 1018.4
20260905162028 71 172 2.0 5.0 0.00 0.00 0.00 78 1018.3
20260905161555 71 77 2.0 6.0 0.00 0.00 0.00 79 1018.2
20260905161027 70 101 1.0 7.0 0.00 0.00 0.00 81 1018.0
20260905160528 69 0 3.0 9.0 0.00 0.00 0.00 82 1017.9
20260905160057 68 348 3.0 9.0 0.00 0.00 0.00 83 1018.0
20260905155530 68 5 1.0 7.0 0.00 0.00 0.00 84 1018.0
20260905155029 66 5 1.0 7.0 0.00 0.00 0.00 86 1018.1
20260905154548 65 351 2.0 8.0 0.00 0.00 0.00 87 1018.3
20260905154030 65 0 0.0 8.0 0.00 0.00 0.00 89 1018.3
20260905153528 64 298 2.0 7.0 0.00 0.00 0.00 89 1018.1
20260905153100 64 0 2.0 6.0 0.00 0.00 0.00 89 1018.1
20260905152526 64 0 2.0 8.0 0.00 0.00 0.00 89 1018.2
20260905152033 64 51 2.0 8.0 0.00 0.00 0.00 90 1018.2
20260905151558 64 42 0.0 9.0 0.00 0.00 0.00 91 1018.3
20260905151028 63 18 2.0 9.0 0.00 0.00 0.00 91 1018.1
20260905150528 63 77 1.0 4.0 0.00 0.00 0.00 91 1018.3
20260905150049 63 81 1.0 5.0 0.00 0.00 0.00 92 1018.6
20260905145530 62 57 2.0 5.0 0.00 0.00 0.00 92 1018.7
20260905145029 62 30 0.0 5.0 0.00 0.00 0.00 92 1018.7
20260905144545 62 301 2.0 5.0 0.00 0.00 0.00 92 1018.7
20260905144056 62 360 1.0 4.0 0.00 0.00 0.00 92 1018.9
20260905143526 62 70 2.0 4.0 0.00 0.00 0.00 92 1018.7
20260905143044 62 69 1.0 3.0 0.00 0.00 0.00 92 1018.9
20260905142528 62 0 1.0 4.0 0.00 0.00 0.00 92 1018.8
20260905142028 62 315 2.0 4.0 0.00 0.00 0.00 92 1019.0
20260905141555 62 355 1.0 4.0 0.00 0.00 0.00 92 1018.7
20260905141029 62 0 1.0 9.0 0.00 0.00 0.00 92 1018.6
20260905140525 62 243 1.0 9.0 0.00 0.00 0.00 92 1018.1
20260905140100 61 0 2.0 6.0 0.00 0.00 0.00 93 1018.0
20260905135528 61 171 1.0 5.0 0.00 0.00 0.00 92 1018.0
20260905135028 62 167 2.0 5.0 0.00 0.00 0.00 93 1018.0
20260905134546 61 34 1.0 5.0 0.00 0.00 0.00 93 1018.0
20260905134029 61 0 1.0 8.0 0.00 0.00 0.00 92 1017.9
20260905133528 61 91 1.0 9.0 0.00 0.00 0.00 93 1017.9
20260905133045 61 49 3.0 9.0 0.00 0.00 0.00 93 1017.8
20260905132528 61 57 2.0 6.0 0.00 0.00 0.00 93 1017.8
20260905132028 61 68 1.0 5.0 0.00 0.00 0.00 93 1017.8
20260905131541 61 0 0.0 5.0 0.00 0.00 0.00 93 1017.9
20260905131029 61 0 1.0 6.0 0.00 0.00 0.00 93 1017.9
20260905130529 61 0 0.0 6.0 0.00 0.00 0.00 93 1017.9
20260905130044 61 78 0.0 5.0 0.00 0.00 0.00 93 1017.8
20260905125531 61 291 1.0 6.0 0.00 0.00 0.00 92 1017.8
20260905125029 61 58 2.0 6.0 0.00 0.00 0.00 92 1017.6
20260905124545 61 330 1.0 5.0 0.00 0.00 0.00 92 1017.5
20260905124031 61 59 0.0 5.0 0.00 0.00 0.00 92 1017.5
20260905123529 61 80 0.0 5.0 0.00 0.00 0.00 92 1017.4
20260905123046 61 16 1.0 7.0 0.00 0.00 0.00 92 1017.3
20260905122529 61 0 1.0 7.0 0.00 0.00 0.00 92 1017.3
20260905122026 61 0 0.0 4.0 0.00 0.00 0.00 92 1017.3
20260905121542 61 0 1.0 4.0 0.00 0.00 0.00 92 1017.2
20260905121028 61 0 1.0 3.0 0.00 0.00 0.00 92 1017.0
20260905120527 61 286 0.0 3.0 0.00 0.00 0.00 92 1017.0
20260905120053 61 16 1.0 4.0 0.00 0.00 0.00 92 1016.9
20260905115528 61 0 1.0 8.0 0.00 0.00 0.00 92 1017.0
20260905115028 61 42 1.0 8.0 0.00 0.00 0.00 92 1017.0
20260905114552 61 17 1.0 3.0 0.00 0.00 0.00 92 1017.0
20260905114029 61 51 1.0 4.0 0.00 0.00 0.00 92 1017.0
20260905113527 61 49 0.0 4.0 0.00 0.00 0.00 92 1016.7
20260905113046 61 44 0.0 6.0 0.00 0.00 0.00 92 1016.8
20260905112526 61 42 1.0 6.0 0.00 0.00 0.00 92 1016.7
20260905112029 61 43 1.0 4.0 0.00 0.00 0.00 92 1016.5
20260905111545 61 252 0.0 3.0 0.00 0.00 0.00 92 1016.7
20260905111031 61 172 1.0 3.0 0.00 0.00 0.00 92 1016.7
20260905110530 61 0 0.0 3.0 0.00 0.00 0.00 92 1016.7
20260905110042 61 0 0.0 3.0 0.00 0.00 0.00 92 1016.8
20260905105529 61 83 0.0 4.0 0.00 0.00 0.00 92 1016.8
20260905105028 61 17 0.0 5.0 0.00 0.00 0.00 92 1016.8
20260905104556 61 0 0.0 5.0 0.00 0.00 0.00 92 1016.7
20260905104028 61 38 0.0 4.0 0.00 0.00 0.00 92 1016.8
20260905103533 61 0 1.0 4.0 0.00 0.00 0.00 92 1016.6
20260905103051 61 26 1.0 3.0 0.00 0.00 0.00 92 1016.6
20260905102528 62 76 1.0 3.0 0.00 0.00 0.00 92 1016.6
20260905102027 62 198 0.0 3.0 0.00 0.00 0.00 92 1016.4
20260905101545 62 162 0.0 3.0 0.00 0.00 0.00 92 1016.5
20260905101026 62 65 0.0 3.0 0.00 0.00 0.00 92 1016.5
20260905100525 62 0 1.0 3.0 0.00 0.00 0.00 92 1016.5
20260905100118 62 0 0.0 4.0 0.00 0.00 0.00 92 1016.5
20260905095532 62 0 1.0 4.0 0.00 0.00 0.00 92 1016.3
20260905095028 62 17 1.0 3.0 0.00 0.00 0.00 92 1016.0
20260905094543 62 46 0.0 6.0 0.00 0.00 0.00 92 1015.9
20260905094028 62 5 2.0 6.0 0.00 0.00 0.00 91 1015.7
20260905093527 62 9 1.0 5.0 0.00 0.00 0.00 91 1015.6
20260905093046 62 68 1.0 5.0 0.00 0.00 0.00 91 1015.4
20260905092528 62 5 1.0 5.0 0.00 0.00 0.00 91 1015.3
20260905092028 62 19 0.0 4.0 0.00 0.00 0.00 91 1015.5
20260905091544 62 0 1.0 4.0 0.00 0.00 0.00 91 1015.4
20260905091028 62 0 1.0 4.0 0.00 0.00 0.00 91 1015.5
20260905090528 62 37 1.0 5.0 0.00 0.00 0.00 91 1015.5
20260905090112 62 0 1.0 5.0 0.00 0.00 0.00 91 1015.5
20260905085529 62 9 2.0 5.0 0.00 0.00 0.00 91 1015.8
20260905085029 62 43 2.0 9.0 0.00 0.00 0.00 91 1015.9
20260905084551 62 0 2.0 9.0 0.00 0.00 0.00 91 1015.9
20260905084035 62 22 1.0 6.0 0.00 0.00 0.00 91 1015.9
20260905083527 62 55 1.0 9.0 0.00 0.00 0.00 91 1015.9
20260905083051 62 54 1.0 9.0 0.00 0.00 0.00 91 1016.0
20260905082529 62 56 2.0 9.0 0.00 0.00 0.00 91 1016.0
20260905082032 62 11 2.0 8.0 0.00 0.00 0.00 91 1016.0
20260905081548 62 14 1.0 8.0 0.00 0.00 0.00 91 1015.9
20260905081028 62 26 1.0 8.0 0.00 0.00 0.00 91 1016.1
20260905080529 62 31 2.0 9.0 0.00 0.00 0.00 91 1016.1
20260905080053 62 0 2.0 9.0 0.00 0.00 0.00 91 1016.1
20260905075529 62 46 3.0 7.0 0.00 0.00 0.00 91 1016.2
20260905075028 63 115 1.0 5.0 0.00 0.00 0.00 91 1016.4
20260905074543 63 73 1.0 5.0 0.00 0.00 0.00 91 1016.4
20260905074029 63 61 1.0 7.0 0.00 0.00 0.00 91 1016.5
20260905073528 63 32 1.0 7.0 0.00 0.00 0.00 90 1016.5
20260905073046 63 74 3.0 6.0 0.00 0.00 0.00 90 1016.6
20260905072528 63 329 1.0 4.0 0.00 0.00 0.00 90 1016.7
20260905072029 63 42 1.0 4.0 0.00 0.00 0.00 90 1016.6
20260905071552 63 51 2.0 4.0 0.00 0.00 0.00 90 1016.7
20260905071029 63 30 1.0 3.0 0.00 0.00 0.00 90 1016.6
20260905070528 63 91 0.0 4.0 0.00 0.00 0.00 90 1016.5
20260905070051 63 0 0.0 5.0 0.00 0.00 0.00 90 1016.5
20260905065525 63 64 0.0 5.0 0.00 0.00 0.00 90 1016.6
20260905065031 63 37 0.0 3.0 0.00 0.00 0.00 90 1016.7
20260905064551 63 132 0.0 5.0 0.00 0.00 0.00 90 1016.7
20260905064035 63 360 1.0 5.0 0.00 0.00 0.00 90 1016.7
20260905063528 63 142 0.0 4.0 0.00 0.00 0.00 90 1016.7
20260905063052 63 0 0.0 3.0 0.00 0.00 0.00 90 1016.6
20260905062528 63 0 0.0 3.0 0.00 0.00 0.00 90 1016.4
20260905062028 63 0 1.0 3.0 0.00 0.00 0.00 89 1016.4
20260905061543 63 71 0.0 8.0 0.00 0.00 0.00 89 1016.4
20260905061027 63 0 1.0 8.0 0.00 0.00 0.00 89 1016.5
20260905060525 63 0 1.0 5.0 0.00 0.00 0.00 89 1016.5
20260905060053 63 0 1.0 5.0 0.00 0.00 0.00 89 1016.6
20260905055528 63 45 0.0 5.0 0.00 0.00 0.00 89 1016.7
20260905055028 63 9 1.0 5.0 0.00 0.00 0.00 89 1016.7
20260905054543 63 51 1.0 5.0 0.00 0.00 0.00 89 1016.7
20260905054028 63 19 2.0 5.0 0.00 0.00 0.00 89 1016.5
20260905053528 63 61 1.0 3.0 0.00 0.00 0.00 89 1016.4
20260905053053 63 0 1.0 4.0 0.00 0.00 0.00 89 1016.5
20260905052527 63 360 1.0 4.0 0.00 0.00 0.00 89 1016.4
20260905052027 63 82 0.0 4.0 0.00 0.00 0.00 88 1016.4
20260905051550 63 25 0.0 5.0 0.00 0.00 0.00 88 1016.5
20260905051028 63 30 2.0 5.0 0.00 0.00 0.00 88 1016.3
20260905050528 63 28 1.0 5.0 0.00 0.00 0.00 88 1016.5
20260905050047 63 64 1.0 5.0 0.00 0.00 0.00 88 1016.6
20260905045527 63 82 2.0 5.0 0.00 0.00 0.00 88 1016.5
20260905045029 63 35 2.0 5.0 0.00 0.00 0.00 88 1016.5
20260905044552 64 39 1.0 4.0 0.00 0.00 0.00 88 1016.4
20260905044025 64 38 1.0 4.0 0.00 0.00 0.00 87 1016.5
20260905043528 64 19 2.0 4.0 0.00 0.00 0.00 87 1016.6
20260905043053 64 44 1.0 4.0 0.00 0.00 0.00 87 1016.5
20260905042528 64 0 0.0 3.0 0.00 0.00 0.00 87 1016.5
20260905042028 64 0 1.0 5.0 0.00 0.00 0.00 87 1016.4
20260905041551 64 92 1.0 5.0 0.00 0.00 0.00 86 1016.4
20260905041029 64 0 1.0 5.0 0.00 0.00 0.00 86 1016.6
20260905040528 64 48 1.0 5.0 0.00 0.00 0.00 86 1016.5
20260905040044 65 82 2.0 5.0 0.00 0.00 0.00 86 1016.5
20260905035529 65 36 1.0 6.0 0.00 0.00 0.00 85 1016.5
20260905035027 65 36 2.0 7.0 0.00 0.00 0.00 85 1016.4
20260905034553 65 41 2.0 7.0 0.00 0.00 0.00 85 1016.3
20260905034029 65 38 2.0 7.0 0.00 0.00 0.00 84 1016.3
20260905033528 66 53 1.0 5.0 0.00 0.00 0.00 84 1016.2
20260905033046 66 46 1.0 6.0 0.00 0.00 0.00 83 1016.1
20260905032529 66 46 2.0 9.0 0.00 0.00 0.00 83 1016.2
20260905032028 67 50 1.0 10.0 0.00 0.00 0.00 83 1016.0
20260905031551 67 57 4.0 10.0 0.00 0.00 0.00 82 1016.0
20260905031027 67 81 4.0 10.0 0.00 0.00 0.00 82 1016.1
20260905030528 68 34 2.0 8.0 0.00 0.00 0.00 82 1016.0
20260905030044 68 5 1.0 11.0 0.00 0.00 0.00 81 1016.1
20260905025528 69 30 3.0 11.0 0.00 0.00 0.00 81 1015.9
20260905025028 69 100 3.0 11.0 0.00 0.00 0.00 80 1015.9
20260905024545 69 22 4.0 11.0 0.00 0.00 0.00 80 1015.8
20260905024028 70 352 3.0 11.0 0.00 0.00 0.00 80 1015.6
20260905023528 70 52 3.0 11.0 0.00 0.00 0.00 79 1015.5